Location: Baia Mare
(47.6567°N, 23.5850°E)
Time: 03:17:21
(UTC+03:00)

ISS - Pass Details

Date: 20 July 2018
Orbit: 402 x 408 km, 51.6° (Epoch: 17 July)

Event Time Altitude Azimuth Distance (km) Brightness Sun altitude
Rises 04:52:29 0° 291° (WNW) 2,332 -0.2 -8.2°
Reaches altitude 10° 04:54:41 10° 281° (W) 1,469 -1.3 -7.9°
Maximum altitude 04:57:40 32° 216° (SW) 720 -3.1 -7.6°
Drops below altitude 10° 05:00:38 10° 151° (SSE) 1,462 -1.1 -7.2°
Sets 05:02:50 0° 141° (SE) 2,319 0.0 -6.9°
